Voltar ao catálogo

CZ-6A DEB

AtivoSSO
NORAD 54467·DEBRIS·🇨🇳 China

Lançado Nov 11, 2022 de Taiyuan Satellite Launch Center

Loading…

Próximas Passagens (próximas 24 horas)

TLE

AtualizadoSource: Space-Track

Época: Sep 14, 2026, 00:53 UTC

1 54467U 22151GT  26257.03686432  .00002243  00000-0  59399-3 0  9990
2 54467  98.5982 297.1476 0097521  90.7814 270.4553 14.46972961201512

Acompanhe CZ-6A DEB em tempo real com AllMySat

Download on the App Store